Glenwood, MN

7:37 AM CDT on March 23, 2017 (GMT -0500)
Glenwood Municipal

Weather History for KGHW - July, 2014

Change the Weather History Date:

Tuesday, July 1, 2014

  Actual Average Record
Temperature  
Mean Temperature 58 °F -  
Max Temperature 64 °F 81 °F 93 °F (1961)
Min Temperature 53 °F 57 °F 43 °F (1969)
Degree Days  
Heating Degree Days 6    
Growing Degree Days 8 (Base 50)    
Moisture  
Dew Point 55 °F    
Average Humidity 86    
Maximum Humidity 94    
Minimum Humidity 72    
Precipitation  
Precipitation 0.08 in - - ()
Sea Level Pressure  
Sea Level Pressure 29.70 in    
Wind  
Wind Speed 16 mph (WNW)    
Max Wind Speed 24 mph    
Max Gust Speed 34 mph    
Visibility 9 miles    
Events Rain    
Averages and records for this station are not official NWS values.
T = Trace of Precipitation, MM = Missing Value Source: NWS Daily Summary

Daily Weather History Graph

Daily Weather History Graph

Search for Another Location

Airport or City:

Trip Planner

Search our weather history database for the weather conditions in past years. The results will help you decide how hot, cold, wet, or windy it might be!

Date:

Astronomy

Jul. 01, 2014 Rise Set
Actual Time 5:35 AM CDT 9:14 PM CDT
Civil Twilight 4:58 AM CDT 9:52 PM CDT
Nautical Twilight 4:07 AM CDT 10:42 PM CDT
Astronomical Twilight 2:59 AM CDT 11:50 PM CDT
Moon 9:58 AM CDT (7/1) 11:23 PM CDT (7/1)
Length of Visible Light 16h 53m
Length of Day
15h 38m
Waxing Crescent, 17% of the Moon is Illuminated
Jul 1
Waxing Crescent
Jul 5
First Quarter
Jul 12
Full
Jul 18
Last Quarter
Jul 26
New

Hourly Weather History & Observations

Time (CDT) Temp. Dew Point Humidity Pressure Visibility Wind Dir Wind Speed Gust Speed Precip Events Conditions
12:14 AM 64.4 °F 57.2 °F 77% 29.53 in 10.0 mi West 19.6 mph 25.3 mph N/A   Mostly Cloudy
12:34 AM 64.4 °F 57.2 °F 77% 29.53 in 10.0 mi West 17.3 mph 26.5 mph N/A   Scattered Clouds
12:54 AM 64.4 °F 57.2 °F 77% 29.53 in 10.0 mi West 16.1 mph 25.3 mph N/A   Scattered Clouds
1:15 AM 64.4 °F 57.2 °F 77% 29.54 in 10.0 mi West 16.1 mph 20.7 mph N/A   Clear
1:34 AM 62.6 °F 59.0 °F 88% 29.54 in 10.0 mi West 15.0 mph 19.6 mph N/A   Clear
1:55 AM 62.6 °F 59.0 °F 88% 29.55 in 10.0 mi West 12.7 mph 19.6 mph N/A   Clear
2:14 AM 62.6 °F 59.0 °F 88% 29.54 in 10.0 mi West 15.0 mph 20.7 mph N/A   Scattered Clouds
2:34 AM 62.6 °F 59.0 °F 88% 29.55 in 10.0 mi West 12.7 mph - N/A   Scattered Clouds
2:55 AM 62.6 °F 59.0 °F 88% 29.55 in 10.0 mi West 11.5 mph 18.4 mph N/A   Clear
3:14 AM 62.6 °F 60.8 °F 94% 29.54 in 10.0 mi West 16.1 mph 19.6 mph N/A   Mostly Cloudy
3:34 AM 62.6 °F 60.8 °F 94% 29.55 in 10.0 mi West 12.7 mph 17.3 mph N/A   Mostly Cloudy
3:54 AM 64.4 °F 60.8 °F 88% 29.56 in 10.0 mi West 12.7 mph 17.3 mph N/A   Overcast
4:14 AM 64.4 °F 60.8 °F 88% 29.58 in 10.0 mi West 10.4 mph 16.1 mph N/A   Overcast
4:35 AM 64.4 °F 60.8 °F 88% 29.58 in 10.0 mi West 11.5 mph - N/A   Overcast
4:54 AM 64.4 °F 60.8 °F 88% 29.58 in 10.0 mi WSW 11.5 mph - N/A   Overcast
5:14 AM 62.6 °F 60.8 °F 94% 29.59 in 7.0 mi West 17.3 mph 23.0 mph N/A Rain Rain
5:34 AM 62.6 °F 60.8 °F 94% 29.59 in 10.0 mi West 13.8 mph 19.6 mph 0.01 in   Overcast
6:15 AM 62.6 °F 59.0 °F 88% 29.59 in 10.0 mi West 13.8 mph 19.6 mph N/A   Overcast
6:34 AM 62.6 °F 59.0 °F 88% 29.60 in 10.0 mi West 9.2 mph - N/A   Overcast
6:55 AM 60.8 °F 59.0 °F 94% 29.61 in 10.0 mi West 16.1 mph 20.7 mph N/A Rain Light Rain
7:14 AM 60.8 °F 57.2 °F 88% 29.60 in 10.0 mi West 13.8 mph 18.4 mph 0.01 in Rain Light Rain
7:34 AM 60.8 °F 57.2 °F 88% 29.61 in 10.0 mi West 13.8 mph - 0.01 in   Light Drizzle
7:55 AM 60.8 °F 57.2 °F 88% 29.60 in 10.0 mi West 15.0 mph 23.0 mph 0.01 in   Mostly Cloudy
8:14 AM 60.8 °F 57.2 °F 88% 29.61 in 10.0 mi West 13.8 mph - N/A   Mostly Cloudy
8:34 AM 60.8 °F 57.2 °F 88% 29.61 in 10.0 mi West 12.7 mph 24.2 mph N/A   Overcast
8:55 AM 62.6 °F 57.2 °F 82% 29.62 in 10.0 mi West 15.0 mph 21.9 mph N/A   Overcast
9:14 AM 62.6 °F 57.2 °F 82% 29.62 in 10.0 mi West 17.3 mph - N/A   Mostly Cloudy
9:35 AM 62.6 °F 57.2 °F 82% 29.63 in 10.0 mi WSW 15.0 mph - N/A   Overcast
9:54 AM 62.6 °F 57.2 °F 82% 29.63 in 7.0 mi West 16.1 mph 19.6 mph N/A   Overcast
10:14 AM 64.4 °F 59.0 °F 83% 29.62 in 10.0 mi West 11.5 mph 20.7 mph N/A   Overcast
10:35 AM 60.8 °F 57.2 °F 88% 29.63 in 3.0 mi NW 20.7 mph - 0.01 in Rain Rain
10:54 AM 57.2 °F 55.4 °F 94% 29.64 in 2.5 mi NW 19.6 mph 23.0 mph 0.02 in Rain Light Rain
11:14 AM 57.2 °F 55.4 °F 94% 29.66 in 3.0 mi NW 13.8 mph - N/A   Overcast
11:34 AM 59.0 °F 55.4 °F 88% 29.67 in 10.0 mi NW 15.0 mph 21.9 mph N/A   Overcast
11:54 AM 59.0 °F 55.4 °F 88% 29.67 in 5.0 mi WNW 20.7 mph 24.2 mph N/A   Overcast
12:15 PM 57.2 °F 55.4 °F 94% 29.69 in 4.0 mi NW 18.4 mph 34.5 mph 0.01 in Rain Light Rain
12:34 PM 59.0 °F 53.6 °F 82% 29.70 in 7.0 mi NW 20.7 mph 27.6 mph 0.01 in   Mostly Cloudy
12:54 PM 55.4 °F 53.6 °F 94% 29.71 in 3.0 mi WNW 16.1 mph - 0.02 in Rain Light Rain
1:14 PM 57.2 °F 53.6 °F 88% 29.72 in 10.0 mi WNW 19.6 mph 25.3 mph N/A   Mostly Cloudy
1:34 PM 57.2 °F 53.6 °F 88% 29.72 in 7.0 mi WNW 16.1 mph 29.9 mph N/A   Overcast
1:55 PM 60.8 °F 53.6 °F 77% 29.72 in 10.0 mi NW 15.0 mph - N/A   Mostly Cloudy
2:14 PM 57.2 °F 51.8 °F 82% 29.73 in 10.0 mi NW 24.2 mph 28.8 mph N/A   Mostly Cloudy
2:35 PM 59.0 °F 50.0 °F 72% 29.74 in 10.0 mi WNW 23.0 mph 29.9 mph N/A   Overcast
2:54 PM 57.2 °F 51.8 °F 82% 29.75 in 10.0 mi WNW 19.6 mph 25.3 mph N/A   Mostly Cloudy
3:14 PM 55.4 °F 50.0 °F 82% 29.76 in 10.0 mi WNW 18.4 mph 28.8 mph N/A Rain Light Rain
3:35 PM 55.4 °F 51.8 °F 88% 29.77 in 10.0 mi WNW 17.3 mph - 0.02 in Rain Light Rain
3:54 PM 55.4 °F 51.8 °F 88% 29.77 in 7.0 mi WNW 18.4 mph 24.2 mph 0.02 in Rain Light Rain
4:14 PM 57.2 °F 53.6 °F 88% 29.77 in 10.0 mi WNW 19.6 mph 24.2 mph N/A   Clear
4:34 PM 57.2 °F 51.8 °F 82% 29.78 in 10.0 mi WNW 20.7 mph 27.6 mph N/A   Mostly Cloudy
4:54 PM 57.2 °F 51.8 °F 82% 29.79 in 10.0 mi WNW 17.3 mph 25.3 mph N/A   Mostly Cloudy
5:15 PM 55.4 °F 51.8 °F 88% 29.79 in 5.0 mi WNW 17.3 mph 20.7 mph N/A   Mostly Cloudy
5:34 PM 55.4 °F 51.8 °F 88% 29.80 in 2.0 mi NW 16.1 mph 25.3 mph N/A Rain Heavy Rain
6:14 PM 55.4 °F 51.8 °F 88% 29.81 in 10.0 mi WNW 16.1 mph 21.9 mph N/A   Mostly Cloudy
6:34 PM 55.4 °F 51.8 °F 88% 29.81 in 7.0 mi NW 19.6 mph 27.6 mph N/A   Mostly Cloudy
6:54 PM 55.4 °F 50.0 °F 82% 29.82 in 10.0 mi NW 17.3 mph 24.2 mph N/A   Mostly Cloudy
7:14 PM 55.4 °F 50.0 °F 82% 29.83 in 10.0 mi WNW 16.1 mph 23.0 mph N/A   Mostly Cloudy
7:35 PM 55.4 °F 50.0 °F 82% 29.83 in 10.0 mi NW 17.3 mph 21.9 mph N/A   Overcast
7:54 PM 55.4 °F 50.0 °F 82% 29.84 in 10.0 mi NW 17.3 mph 21.9 mph N/A   Overcast
8:14 PM 55.4 °F 48.2 °F 77% 29.84 in 10.0 mi NW 17.3 mph 24.2 mph N/A   Overcast
8:35 PM 55.4 °F 48.2 °F 77% 29.85 in 10.0 mi NNW 13.8 mph - N/A   Overcast
8:54 PM 53.6 °F 51.8 °F 94% 29.86 in 7.0 mi NW 13.8 mph 20.7 mph N/A   Overcast
9:14 PM 53.6 °F 50.0 °F 88% 29.87 in 10.0 mi NW 12.7 mph 24.2 mph N/A   Overcast
9:34 PM 53.6 °F 50.0 °F 88% 29.87 in 10.0 mi NW 13.8 mph 19.6 mph N/A   Overcast
9:54 PM 53.6 °F 51.8 °F 94% 29.88 in 10.0 mi NW 12.7 mph 19.6 mph N/A   Overcast
10:15 PM 53.6 °F 50.0 °F 88% 29.89 in 10.0 mi NW 12.7 mph - N/A   Overcast
10:34 PM 53.6 °F 51.8 °F 94% 29.89 in 10.0 mi NW 11.5 mph - N/A   Mostly Cloudy
10:54 PM 55.4 °F 50.0 °F 82% 29.90 in 10.0 mi NW 13.8 mph 18.4 mph N/A   Overcast
11:14 PM 55.4 °F 51.8 °F 88% 29.91 in 10.0 mi NW 12.7 mph - N/A   Overcast
11:34 PM 55.4 °F 50.0 °F 82% 29.92 in 10.0 mi NNW 10.4 mph 19.6 mph N/A   Overcast
11:55 PM 53.6 °F 50.0 °F 88% 29.93 in 7.0 mi NNW 13.8 mph 21.9 mph N/A   Overcast